Home   Weather   Waterford   Past weeks

Flag for Ireland Past Weather in Waterford, Ireland — Yesterday and Last 2 Weeks

50 °F


Feels Like: 48 °F
Forecast: 49 / 62 °F
Wind: 6 mph from Southwest

Location: Cork Airport

Current Time: Oct 27, 2016 at 2:20:01 AM

Latest Report: Oct 27, 2016 at 2:00 AM

Visibility: 2 mi

Pressure: 30.39 "Hg

Humidity: 94%

Dew Point: 48 °F

Location of WaterfordLocation

Past Weather in Waterford — Graph


Waterford Temperature Yesterday

Maximum temperature yesterday: 59 °F (at 1:00 PM)
Minimum temperature yesterday: 46 °F (at 9:30 PM)
Average temperature yesterday: 52 °F

High & Low Weather Summary for the Past Weeks

High59 °F (Oct 26, 1:00 PM)100% (Oct 14, 7:30 PM)30.39 "Hg (Oct 14, 7:30 PM)
Low41 °F (Oct 15, 4:30 AM)55% (Oct 20, 2:00 PM)29.27 "Hg (Oct 16, 5:30 AM)
Average49 °F85%29.97 "Hg
* Reported Oct 12 1:00 AM — Oct 27 1:00 AM, Waterford, Weather by CustomWeather, © 2016

Note: Actual official high and low records may vary slightly from our data, if they occured in-between our weather recording intervals... More about our weather records


Waterford Weather History for the Previous 24 Hours

Scroll right to see more
Time TempWeatherWind HumidityBarometerVisibility
1:00 AM
Thu, Oct 27
52 °FFog.6 mph100%30.39 "Hg1 mi
12:30 AM52 °FFog.3 mph94%30.39 "Hg1 mi
12:00 AM50 °FFog.6 mph100%30.39 "Hg1 mi
11:30 PM
Wed, Oct 26
50 °FFog.6 mph94%30.39 "Hg0 mi
11:00 PM46 °FFog.5 mph100%30.39 "Hg0 mi
10:30 PM46 °FFog.5 mph100%30.39 "Hg1 mi
10:00 PM46 °FFog.6 mph93%30.39 "Hg1 mi
9:30 PM46 °FFog.6 mph100%30.39 "Hg2 mi
9:00 PM50 °FFog.8 mph94%30.39 "Hg1 mi
8:30 PM50 °FFog.7 mph94%30.39 "Hg1 mi
8:00 PM50 °FFog.7 mph94%30.39 "Hg2 mi
7:30 PM48 °FPassing clouds.7 mph100%30.39 "HgN/A
7:00 PM50 °FPassing clouds.8 mph100%30.36 "HgN/A
6:30 PM52 °FPassing clouds.9 mph100%30.36 "HgN/A
6:00 PM54 °FPassing clouds.10 mph94%30.36 "HgN/A
5:30 PM54 °FPartly sunny.8 mph94%30.36 "HgN/A
5:00 PM57 °FScattered clouds.12 mph77%30.36 "HgN/A
4:30 PM57 °FPartly sunny.12 mph82%30.33 "HgN/A
4:00 PM55 °FPartly sunny.9 mph88%30.33 "HgN/A
3:30 PM55 °FBroken clouds.9 mph88%30.33 "HgN/A
3:00 PM55 °FPartly sunny.6 mph88%30.33 "HgN/A
2:30 PM55 °FBroken clouds.7 mph88%30.36 "HgN/A
2:00 PM55 °FBroken clouds.8 mph82%30.36 "HgN/A
1:30 PM55 °FBroken clouds.9 mph82%30.36 "HgN/A
1:00 PM59 °FScattered clouds.9 mph77%30.33 "HgN/A
12:30 PM55 °FScattered clouds.12 mph88%30.33 "HgN/A
12:00 PM55 °FPartly sunny.12 mph88%30.33 "HgN/A
11:30 AM55 °FPartly sunny.12 mph88%30.33 "HgN/A
11:00 AM54 °FPassing clouds.12 mph94%30.30 "HgN/A
10:30 AM54 °FPassing clouds.12 mph94%30.30 "HgN/A
10:00 AM50 °FPassing clouds.8 mph100%30.30 "HgN/A
9:30 AM48 °FPassing clouds.6 mph94%30.30 "HgN/A
9:00 AM50 °FPassing clouds.5 mph94%30.30 "HgN/A
8:30 AM50 °FPassing clouds.8 mph94%30.27 "HgN/A
8:00 AM50 °FPassing clouds.9 mph94%30.27 "HgN/A
7:30 AM50 °FPassing clouds.8 mph94%30.27 "HgN/A
7:00 AM50 °FLow clouds.6 mph94%30.24 "HgN/A
6:30 AM50 °FLow clouds.7 mph100%30.24 "HgN/A
6:00 AM50 °FLow clouds.5 mph94%30.24 "HgN/A
5:30 AM50 °FLow clouds.7 mph94%30.24 "Hg6 mi
5:00 AM50 °FLow clouds.7 mph100%30.24 "Hg6 mi
4:30 AM50 °FLow clouds.7 mph94%30.24 "Hg5 mi
4:00 AM50 °FLow clouds.7 mph94%30.21 "Hg6 mi
3:30 AM50 °FLow clouds.7 mph94%30.21 "Hg5 mi
3:00 AM50 °FFog.7 mph100%30.21 "Hg2 mi
2:30 AM50 °FFog.7 mph100%30.21 "Hg2 mi
2:00 AM50 °FFog.6 mph100%30.21 "Hg1 mi
Weather by CustomWeather, © 2016

See weather overviewHow to use our weather pages